Total_Precipitation_Accumulation
0.07 0.10 0.15 0.19 0.18 0.18 0.17 0.16 0.16 0.21 0.28 0.37 0.48 0.60 0.73 0.79 0.79 0.85 0.96 1.13 1.24 1.28 1.26 1.20 1.11 0.99 0.89 0.79 0.67 0.52 0.41 0.32 0.24 0.18 0.13 0.08 0.06 0.05 0.04 0.03 0.02 0.02 0.01
0.05 0.08 0.18 0.33 0.32 0.27 0.23 0.24 0.29 0.43 0.65 0.88 1.10 1.28 1.40 1.49 1.51 1.55 1.65 1.74 1.84 1.87 1.85 1.76 1.65 1.49 1.22 0.89 0.63 0.48 0.40 0.31 0.23 0.19 0.15 0.10 0.05 0.03 0.02 0.02 0.02 0.02 0.01
0.05 0.07 0.16 0.27 0.35 0.34 0.36 0.37 0.44 0.75 1.13 1.44 1.73 1.97 2.16 2.30 2.30 2.21 2.20 2.24 2.25 2.22 2.20 2.08 1.83 1.47 1.11 0.81 0.62 0.51 0.38 0.27 0.17 0.12 0.11 0.10 0.08 0.03 0.01 0.01 0.01 0.01 0.01
0.03 0.04 0.12 0.22 0.27 0.38 0.45 0.49 0.64 0.96 1.32 1.66 2.11 2.47 2.66 2.82 2.97 2.87 2.70 2.49 2.30 2.19 2.05 1.83 1.46 1.14 0.88 0.68 0.55 0.42 0.28 0.18 0.12 0.08 0.06 0.05 0.04 0.03 0.01 0.01 0.00 0.00 0.00
0.03 0.05 0.14 0.23 0.31 0.40 0.41 0.49 0.72 1.13 1.70 2.22 2.60 2.78 2.95 3.07 3.03 2.84 2.58 2.27 1.94 1.59 1.33 1.12 0.88 0.71 0.56 0.41 0.32 0.24 0.15 0.10 0.07 0.05 0.04 0.03 0.02 0.02 0.01 0.01 0.00 0.00 0.00
0.06 0.08 0.14 0.28 0.40 0.40 0.41 0.56 0.87 1.43 2.01 2.42 2.74 2.90 2.92 2.81 2.64 2.36 1.99 1.68 1.40 1.08 0.81 0.65 0.51 0.41 0.33 0.23 0.15 0.09 0.06 0.04 0.03 0.02 0.02 0.01 0.01 0.01 0.01 0.01 0.00 0.00 0.00
0.13 0.16 0.22 0.33 0.48 0.50 0.61 0.86 1.19 1.62 1.90 2.15 2.35 2.38 2.34 2.19 2.00 1.77 1.51 1.28 1.00 0.72 0.50 0.38 0.32 0.26 0.19 0.12 0.07 0.05 0.03 0.02 0.02 0.01 0.01 0.01 0.01 0.00 0.00 0.00 0.00 0.00 0.00
0.19 0.25 0.36 0.48 0.59 0.65 0.71 0.92 1.20 1.48 1.59 1.68 1.78 1.79 1.74 1.66 1.53 1.36 1.14 0.91 0.70 0.53 0.38 0.29 0.22 0.15 0.09 0.07 0.05 0.04 0.03 0.02 0.01 0.01 0.01 0.01 0.00 0.00 0.00 0.00 0.00 0.01 0.00
0.20 0.29 0.41 0.51 0.58 0.62 0.71 0.84 1.00 1.16 1.25 1.34 1.38 1.36 1.33 1.25 1.13 0.94 0.74 0.60 0.50 0.38 0.27 0.18 0.13 0.10 0.08 0.05 0.04 0.03 0.02 0.02 0.02 0.02 0.01 0.01 0.01 0.01 0.01 0.01 0.01 0.02 0.02
0.22 0.30 0.36 0.40 0.44 0.46 0.55 0.65 0.74 0.82 0.91 0.96 0.97 0.92 0.85 0.78 0.70 0.59 0.48 0.36 0.29 0.23 0.18 0.15 0.11 0.09 0.07 0.05 0.05 0.04 0.03 0.02 0.02 0.02 0.02 0.02 0.02 0.02 0.02 0.02 0.03 0.03 0.04
0.25 0.29 0.30 0.32 0.30 0.30 0.38 0.43 0.49 0.60 0.66 0.67 0.62 0.53 0.50 0.44 0.40 0.35 0.31 0.25 0.20 0.18 0.16 0.15 0.13 0.10 0.08 0.07 0.06 0.06 0.05 0.05 0.04 0.04 0.04 0.04 0.04 0.05 0.04 0.04 0.04 0.03 0.03
0.28 0.26 0.25 0.24 0.21 0.24 0.27 0.31 0.35 0.38 0.40 0.38 0.35 0.32 0.30 0.29 0.27 0.25 0.23 0.20 0.20 0.19 0.18 0.16 0.14 0.12 0.10 0.09 0.08 0.07 0.07 0.07 0.06 0.06 0.05 0.05 0.05 0.06 0.05 0.05 0.04 0.04 0.05
0.35 0.31 0.29 0.26 0.25 0.25 0.26 0.25 0.25 0.24 0.24 0.23 0.24 0.23 0.24 0.24 0.25 0.26 0.26 0.24 0.23 0.22 0.20 0.19 0.17 0.16 0.14 0.12 0.11 0.09 0.08 0.07 0.05 0.05 0.04 0.03 0.03 0.04 0.04 0.04 0.04 0.04 0.04
0.37 0.39 0.42 0.41 0.34 0.27 0.25 0.24 0.24 0.21 0.20 0.19 0.19 0.19 0.19 0.21 0.22 0.22 0.23 0.23 0.23 0.24 0.25 0.23 0.20 0.17 0.14 0.11 0.08 0.06 0.04 0.03 0.03 0.03 0.02 0.02 0.03 0.04 0.06 0.05 0.06 0.07 0.09
0.45 0.50 0.52 0.46 0.40 0.36 0.33 0.29 0.29 0.26 0.24 0.24 0.25 0.24 0.24 0.24 0.25 0.26 0.27 0.27 0.25 0.22 0.19 0.15 0.12 0.09 0.06 0.04 0.03 0.02 0.01 0.01 0.01 0.01 0.01 0.01 0.03 0.04 0.05 0.06 0.08 0.12 0.15
0.63 0.60 0.58 0.55 0.52 0.49 0.45 0.41 0.38 0.36 0.35 0.36 0.37 0.37 0.37 0.36 0.34 0.30 0.26 0.21 0.17 0.13 0.09 0.06 0.05 0.04 0.02 0.02 0.01 0.01 0.00 0.01 0.01 0.02 0.02 0.02 0.02 0.02 0.02 0.05 0.10 0.16 0.19
0.75 0.72 0.69 0.66 0.63 0.62 0.58 0.55 0.52 0.49 0.47 0.47 0.48 0.47 0.43 0.38 0.30 0.20 0.14 0.10 0.08 0.06 0.05 0.04 0.03 0.03 0.01 0.00 0.00 0.00 0.00 0.01 0.02 0.03 0.03 0.03 0.01 0.03 0.04 0.05 0.07 0.07 0.08
0.75 0.74 0.76 0.77 0.73 0.68 0.63 0.60 0.57 0.53 0.50 0.49 0.47 0.41 0.34 0.26 0.17 0.10 0.07 0.06 0.05 0.04 0.03 0.02 0.02 0.03 0.01 0.00 0.00 0.00 0.00 0.01 0.02 0.03 0.03 0.04 0.04 0.05 0.05 0.04 0.04 0.05 0.07
0.80 0.81 0.81 0.75 0.69 0.62 0.58 0.57 0.57 0.53 0.47 0.41 0.33 0.23 0.16 0.11 0.07 0.05 0.04 0.04 0.03 0.02 0.01 0.01 0.01 0.03 0.04 0.01 0.00 0.00 0.00 0.01 0.02 0.02 0.02 0.03 0.05 0.07 0.07 0.05 0.06 0.08 0.10
0.59 0.56 0.52 0.48 0.46 0.45 0.44 0.41 0.38 0.32 0.26 0.18 0.12 0.08 0.06 0.04 0.04 0.03 0.03 0.02 0.02 0.02 0.01 0.01 0.01 0.03 0.05 0.01 0.00 0.00 0.00 0.01 0.01 0.01 0.02 0.04 0.06 0.05 0.05 0.04 0.09 0.15 0.14
0.36 0.32 0.29 0.30 0.31 0.29 0.26 0.22 0.18 0.14 0.09 0.06 0.04 0.03 0.03 0.02 0.02 0.02 0.02 0.02 0.02 0.03 0.03 0.03 0.03 0.03 0.03 0.01 0.00 0.00 0.00 0.01 0.01 0.03 0.05 0.09 0.07 0.05 0.05 0.06 0.11 0.16 0.15
0.18 0.16 0.16 0.16 0.14 0.12 0.10 0.09 0.08 0.05 0.03 0.02 0.02 0.02 0.01 0.01 0.01 0.02 0.02 0.02 0.03 0.04 0.05 0.04 0.04 0.03 0.03 0.02 0.00 0.00 0.00 0.00 0.02 0.06 0.09 0.11 0.08 0.07 0.09 0.10 0.14 0.16 0.22
0.09 0.09 0.08 0.07 0.08 0.07 0.07 0.06 0.05 0.04 0.04 0.05 0.04 0.03 0.02 0.01 0.01 0.02 0.03 0.04 0.05 0.04 0.04 0.04 0.04 0.04 0.04 0.03 0.00 0.00 0.00 0.01 0.03 0.07 0.09 0.11 0.12 0.14 0.21 0.21 0.21 0.26 0.35
0.06 0.06 0.06 0.07 0.08 0.07 0.08 0.09 0.08 0.08 0.10 0.11 0.08 0.05 0.04 0.04 0.04 0.04 0.04 0.05 0.06 0.04 0.04 0.05 0.05 0.05 0.05 0.03 0.02 0.01 0.02 0.03 0.05 0.07 0.11 0.18 0.24 0.27 0.32 0.35 0.39 0.40 0.37
0.06 0.06 0.07 0.07 0.06 0.06 0.07 0.08 0.09 0.11 0.14 0.13 0.08 0.05 0.04 0.04 0.05 0.06 0.05 0.03 0.04 0.01 0.02 0.03 0.03 0.03 0.04 0.02 0.02 0.01 0.01 0.02 0.04 0.06 0.13 0.21 0.26 0.31 0.32 0.35 0.39 0.41 0.37
0.05 0.05 0.05 0.04 0.03 0.03 0.03 0.04 0.07 0.08 0.09 0.10 0.06 0.03 0.03 0.03 0.04 0.07 0.08 0.03 0.01 0.00 0.00 0.00 0.01 0.02 0.02 0.02 0.02 0.01 0.02 0.04 0.06 0.11 0.18 0.21 0.24 0.29 0.30 0.30 0.33 0.36 0.35